| time (UTC) | temp F | wind direction | speed MPH | gust MPH | rain 1hr in | rain 24hr in | rain mn in | humidity % | barometer mb |
| 20260904110008 | 74 | 235 | 21.0 | 21.0 | 0.00 | 0.00 | 0.00 | 62 | 1018.0 |
| 20260904105508 | 74 | 222 | 11.0 | 25.0 | 0.00 | 0.00 | 0.00 | 63 | 1018.1 |
| 20260904105008 | 73 | 262 | 18.0 | 19.0 | 0.00 | 0.00 | 0.00 | 63 | 1018.0 |
| 20260904104508 | 73 | 253 | 14.0 | 17.0 | 0.00 | 0.00 | 0.00 | 64 | 1018.5 |
| 20260904104008 | 73 | 252 | 12.0 | 13.0 | 0.00 | 0.00 | 0.00 | 64 | 1018.3 |
| 20260904103507 | 73 | 254 | 13.0 | 17.0 | 0.00 | 0.00 | 0.00 | 64 | 1018.6 |
| 20260904103008 | 73 | 281 | 25.0 | 28.0 | 0.00 | 0.00 | 0.00 | 63 | 1018.7 |
| 20260904102507 | 73 | 254 | 17.0 | 25.0 | 0.00 | 0.00 | 0.00 | 64 | 1018.3 |
| 20260904102008 | 73 | 261 | 16.0 | 24.0 | 0.00 | 0.00 | 0.00 | 65 | 1018.4 |
| 20260904101507 | 72 | 273 | 11.0 | 21.0 | 0.00 | 0.00 | 0.00 | 65 | 1018.6 |
| 20260904101007 | 72 | 241 | 19.0 | 22.0 | 0.00 | 0.00 | 0.00 | 65 | 1018.8 |
| 20260904100506 | 72 | 254 | 16.0 | 21.0 | 0.00 | 0.00 | 0.00 | 65 | 1018.5 |
| 20260904100007 | 72 | 254 | 11.0 | 17.0 | 0.00 | 0.00 | 0.00 | 65 | 1018.8 |
| 20260904095507 | 72 | 256 | 10.0 | 25.0 | 0.00 | 0.00 | 0.00 | 66 | 1018.9 |
| 20260904095008 | 72 | 267 | 13.0 | 20.0 | 0.00 | 0.00 | 0.00 | 66 | 1018.8 |
| 20260904094508 | 72 | 259 | 20.0 | 21.0 | 0.00 | 0.00 | 0.00 | 65 | 1018.9 |
| 20260904094007 | 72 | 258 | 14.0 | 21.0 | 0.00 | 0.00 | 0.00 | 66 | 1019.0 |
| 20260904093507 | 72 | 262 | 21.0 | 22.0 | 0.00 | 0.00 | 0.00 | 65 | 1018.8 |
| 20260904093008 | 72 | 252 | 24.0 | 27.0 | 0.00 | 0.00 | 0.00 | 66 | 1019.0 |
| 20260904092507 | 71 | 261 | 23.0 | 30.0 | 0.00 | 0.00 | 0.00 | 66 | 1018.8 |
| 20260904092008 | 71 | 257 | 25.0 | 25.0 | 0.00 | 0.00 | 0.00 | 67 | 1019.1 |
| 20260904091507 | 71 | 254 | 21.0 | 26.0 | 0.00 | 0.00 | 0.00 | 66 | 1019.0 |
| 20260904091006 | 71 | 259 | 12.0 | 17.0 | 0.00 | 0.00 | 0.00 | 68 | 1018.9 |
| 20260904090509 | 71 | 230 | 15.0 | 19.0 | 0.00 | 0.00 | 0.00 | 67 | 1019.0 |
| 20260904090007 | 71 | 255 | 10.0 | 12.0 | 0.00 | 0.00 | 0.00 | 68 | 1019.2 |
| 20260904085508 | 70 | 237 | 6.0 | 8.0 | 0.00 | 0.00 | 0.00 | 68 | 1019.2 |
| 20260904085008 | 70 | 279 | 19.0 | 20.0 | 0.00 | 0.00 | 0.00 | 68 | 1019.5 |
| 20260904084508 | 69 | 249 | 14.0 | 24.0 | 0.00 | 0.00 | 0.00 | 68 | 1019.3 |
| 20260904084007 | 70 | 264 | 18.0 | 19.0 | 0.00 | 0.00 | 0.00 | 68 | 1019.4 |
| 20260904083508 | 69 | 259 | 21.0 | 22.0 | 0.00 | 0.00 | 0.00 | 69 | 1019.6 |
| 20260904083008 | 69 | 257 | 19.0 | 20.0 | 0.00 | 0.00 | 0.00 | 70 | 1019.6 |
| 20260904082507 | 69 | 251 | 12.0 | 15.0 | 0.00 | 0.00 | 0.00 | 70 | 1019.7 |
| 20260904082007 | 69 | 250 | 10.0 | 11.0 | 0.00 | 0.00 | 0.00 | 70 | 1019.5 |
| 20260904081508 | 69 | 250 | 10.0 | 16.0 | 0.00 | 0.00 | 0.00 | 71 | 1019.6 |
| 20260904081006 | 68 | 271 | 6.0 | 14.0 | 0.00 | 0.00 | 0.00 | 71 | 1019.5 |
| 20260904080508 | 68 | 245 | 8.0 | 12.0 | 0.00 | 0.00 | 0.00 | 73 | 1019.7 |
| 20260904080007 | 68 | 252 | 12.0 | 17.0 | 0.00 | 0.00 | 0.00 | 73 | 1019.7 |
| 20260904075508 | 67 | 255 | 11.0 | 15.0 | 0.00 | 0.00 | 0.00 | 74 | 1019.5 |
| 20260904075008 | 67 | 243 | 13.0 | 14.0 | 0.00 | 0.00 | 0.00 | 74 | 1019.5 |
| 20260904074508 | 67 | 248 | 17.0 | 20.0 | 0.00 | 0.00 | 0.00 | 73 | 1019.7 |
| 20260904074007 | 67 | 252 | 16.0 | 22.0 | 0.00 | 0.00 | 0.00 | 73 | 1019.6 |
| 20260904073508 | 66 | 242 | 9.0 | 13.0 | 0.00 | 0.00 | 0.00 | 74 | 1019.7 |
| 20260904073008 | 66 | 232 | 14.0 | 16.0 | 0.00 | 0.00 | 0.00 | 74 | 1019.5 |
| 20260904072508 | 66 | 250 | 13.0 | 18.0 | 0.00 | 0.00 | 0.00 | 75 | 1019.6 |
| 20260904072008 | 66 | 245 | 14.0 | 19.0 | 0.00 | 0.00 | 0.00 | 75 | 1019.6 |
| 20260904071508 | 66 | 248 | 17.0 | 19.0 | 0.00 | 0.00 | 0.00 | 75 | 1019.8 |
| 20260904071006 | 65 | 242 | 21.0 | 22.0 | 0.00 | 0.00 | 0.00 | 75 | 1019.5 |
| 20260904070507 | 65 | 212 | 10.0 | 12.0 | 0.00 | 0.00 | 0.00 | 76 | 1019.7 |
| 20260904070007 | 65 | 246 | 11.0 | 14.0 | 0.00 | 0.00 | 0.00 | 76 | 1019.7 |
| 20260904065507 | 65 | 235 | 17.0 | 17.0 | 0.00 | 0.00 | 0.00 | 76 | 1019.8 |
| 20260904065007 | 64 | 241 | 12.0 | 14.0 | 0.00 | 0.00 | 0.00 | 76 | 1019.9 |
| 20260904064507 | 64 | 241 | 12.0 | 14.0 | 0.00 | 0.00 | 0.00 | 76 | 1019.8 |
| 20260904064008 | 64 | 250 | 11.0 | 15.0 | 0.00 | 0.00 | 0.00 | 76 | 1019.5 |
| 20260904063508 | 64 | 230 | 8.0 | 10.0 | 0.00 | 0.00 | 0.00 | 76 | 1019.7 |
| 20260904063008 | 64 | 231 | 8.0 | 14.0 | 0.00 | 0.00 | 0.00 | 76 | 1019.9 |
| 20260904062509 | 30 | 0 | 0.0 | 0.0 | 0.00 | 0.00 | 0.00 | 100 | 1019.7 |
| 20260904062008 | 30 | 0 | 0.0 | 0.0 | 0.00 | 0.00 | 0.00 | 100 | 1019.6 |
| 20260904061508 | 63 | 225 | 8.0 | 11.0 | 0.00 | 0.00 | 0.00 | 77 | 1019.9 |
| 20260904061008 | 63 | 225 | 8.0 | 11.0 | 0.00 | 0.00 | 0.00 | 77 | 1019.7 |
| 20260904060508 | 63 | 241 | 7.0 | 8.0 | 0.00 | 0.00 | 0.00 | 78 | 1019.6 |
| 20260904060008 | 63 | 241 | 7.0 | 8.0 | 0.00 | 0.00 | 0.00 | 78 | 1019.6 |
| 20260904055507 | 63 | 245 | 12.0 | 12.0 | 0.00 | 0.00 | 0.00 | 77 | 1019.8 |
| 20260904055007 | 30 | 0 | 0.0 | 0.0 | 0.00 | 0.00 | 0.00 | 100 | 1019.8 |
| 20260904054507 | 30 | 0 | 0.0 | 0.0 | 0.00 | 0.00 | 0.00 | 100 | 1019.7 |
| 20260904054007 | 63 | 254 | 11.0 | 13.0 | 0.00 | 0.00 | 0.00 | 77 | 1019.6 |
| 20260904053507 | 63 | 254 | 11.0 | 13.0 | 0.00 | 0.00 | 0.00 | 77 | 1019.8 |
| 20260904053008 | 63 | 261 | 11.0 | 13.0 | 0.00 | 0.00 | 0.00 | 77 | 1019.9 |
| 20260904052508 | 63 | 242 | 10.0 | 11.0 | 0.00 | 0.00 | 0.00 | 77 | 1019.9 |
| 20260904052008 | 63 | 245 | 13.0 | 14.0 | 0.00 | 0.00 | 0.00 | 78 | 1019.9 |
| 20260904051507 | 62 | 231 | 10.0 | 12.0 | 0.00 | 0.00 | 0.00 | 78 | 1019.9 |
| 20260904051007 | 62 | 249 | 11.0 | 12.0 | 0.00 | 0.00 | 0.00 | 78 | 1020.3 |
| 20260904050507 | 63 | 235 | 9.0 | 10.0 | 0.00 | 0.00 | 0.00 | 78 | 1020.2 |
| 20260904050008 | 63 | 235 | 9.0 | 10.0 | 0.00 | 0.00 | 0.00 | 78 | 1020.0 |
| 20260904045508 | 63 | 237 | 8.0 | 10.0 | 0.00 | 0.00 | 0.00 | 78 | 1020.0 |
| 20260904045008 | 62 | 233 | 8.0 | 9.0 | 0.00 | 0.00 | 0.00 | 78 | 1020.1 |
| 20260904044508 | 62 | 252 | 9.0 | 10.0 | 0.00 | 0.00 | 0.00 | 79 | 1019.9 |
| 20260904044008 | 62 | 252 | 9.0 | 10.0 | 0.00 | 0.00 | 0.00 | 79 | 1020.0 |
| 20260904043507 | 62 | 241 | 5.0 | 7.0 | 0.00 | 0.00 | 0.00 | 79 | 1019.9 |
| 20260904043007 | 63 | 241 | 8.0 | 11.0 | 0.00 | 0.00 | 0.00 | 78 | 1020.0 |
| 20260904042508 | 30 | 0 | 0.0 | 0.0 | 0.00 | 0.00 | 0.00 | 100 | 1019.8 |
| 20260904042008 | 63 | 233 | 14.0 | 15.0 | 0.00 | 0.00 | 0.00 | 77 | 1019.8 |
| 20260904041508 | 63 | 233 | 14.0 | 15.0 | 0.00 | 0.00 | 0.00 | 77 | 1019.8 |
| 20260904041006 | 63 | 238 | 13.0 | 14.0 | 0.00 | 0.00 | 0.00 | 77 | 1019.8 |
| 20260904040508 | 63 | 221 | 12.0 | 16.0 | 0.00 | 0.00 | 0.00 | 77 | 1019.8 |
| 20260904040008 | 63 | 213 | 11.0 | 13.0 | 0.00 | 0.00 | 0.00 | 78 | 1019.6 |
| 20260904035507 | 63 | 253 | 10.0 | 12.0 | 0.00 | 0.00 | 0.00 | 78 | 1019.7 |
| 20260904035008 | 63 | 227 | 10.0 | 14.0 | 0.00 | 0.00 | 0.00 | 78 | 1020.0 |
| 20260904034508 | 63 | 229 | 10.0 | 13.0 | 0.00 | 0.00 | 0.00 | 78 | 1020.0 |
| 20260904034008 | 63 | 230 | 10.0 | 11.0 | 0.00 | 0.00 | 0.00 | 79 | 1019.8 |
| 20260904033507 | 63 | 244 | 10.0 | 15.0 | 0.00 | 0.00 | 0.00 | 79 | 1019.8 |
| 20260904033007 | 62 | 251 | 11.0 | 12.0 | 0.00 | 0.00 | 0.00 | 79 | 1020.0 |
| 20260904032507 | 63 | 241 | 15.0 | 15.0 | 0.00 | 0.00 | 0.00 | 79 | 1020.0 |
| 20260904032007 | 62 | 242 | 18.0 | 19.0 | 0.00 | 0.00 | 0.00 | 80 | 1020.2 |
| 20260904031508 | 62 | 231 | 14.0 | 14.0 | 0.00 | 0.00 | 0.00 | 80 | 1020.1 |
| 20260904031007 | 62 | 241 | 11.0 | 12.0 | 0.00 | 0.00 | 0.00 | 80 | 1020.1 |
| 20260904030507 | 62 | 200 | 6.0 | 12.0 | 0.00 | 0.00 | 0.00 | 80 | 1020.2 |
| 20260904030008 | 62 | 242 | 7.0 | 11.0 | 0.00 | 0.00 | 0.00 | 81 | 1020.3 |
| 20260904025508 | 62 | 235 | 10.0 | 12.0 | 0.00 | 0.00 | 0.00 | 81 | 1020.4 |
| 20260904025007 | 62 | 241 | 10.0 | 18.0 | 0.00 | 0.00 | 0.00 | 81 | 1020.3 |
| 20260904024507 | 62 | 244 | 16.0 | 18.0 | 0.00 | 0.00 | 0.00 | 81 | 1020.2 |
| 20260904024008 | 62 | 241 | 10.0 | 10.0 | 0.00 | 0.00 | 0.00 | 82 | 1020.4 |
| 20260904023508 | 62 | 253 | 15.0 | 17.0 | 0.00 | 0.00 | 0.00 | 81 | 1020.3 |
| 20260904023008 | 62 | 253 | 15.0 | 17.0 | 0.00 | 0.00 | 0.00 | 81 | 1020.4 |
| 20260904022508 | 62 | 235 | 12.0 | 13.0 | 0.00 | 0.00 | 0.00 | 81 | 1020.3 |
| 20260904022007 | 62 | 250 | 10.0 | 14.0 | 0.00 | 0.00 | 0.00 | 81 | 1020.3 |
| 20260904021508 | 62 | 244 | 13.0 | 14.0 | 0.00 | 0.00 | 0.00 | 81 | 1020.4 |
| 20260904021007 | 62 | 244 | 13.0 | 14.0 | 0.00 | 0.00 | 0.00 | 81 | 1020.3 |
| 20260904020507 | 62 | 237 | 7.0 | 9.0 | 0.00 | 0.00 | 0.00 | 81 | 1020.4 |
| 20260904020007 | 62 | 268 | 7.0 | 10.0 | 0.00 | 0.00 | 0.00 | 80 | 1020.5 |
| 20260904015507 | 62 | 248 | 9.0 | 10.0 | 0.00 | 0.00 | 0.00 | 80 | 1020.5 |
| 20260904015008 | 62 | 235 | 6.0 | 9.0 | 0.00 | 0.00 | 0.00 | 80 | 1020.3 |
| 20260904014508 | 62 | 251 | 7.0 | 11.0 | 0.00 | 0.00 | 0.00 | 80 | 1020.4 |
| 20260904014008 | 62 | 229 | 7.0 | 10.0 | 0.00 | 0.00 | 0.00 | 81 | 1020.2 |
| 20260904013507 | 62 | 241 | 8.0 | 8.0 | 0.00 | 0.00 | 0.00 | 81 | 1020.4 |
| 20260904013007 | 62 | 244 | 11.0 | 12.0 | 0.00 | 0.00 | 0.00 | 81 | 1020.4 |
| 20260904012507 | 62 | 255 | 10.0 | 14.0 | 0.00 | 0.00 | 0.00 | 81 | 1020.6 |
| 20260904012007 | 62 | 251 | 9.0 | 10.0 | 0.00 | 0.00 | 0.00 | 81 | 1020.5 |
| 20260904011507 | 62 | 254 | 9.0 | 11.0 | 0.00 | 0.00 | 0.00 | 81 | 1020.7 |
| 20260904011008 | 62 | 265 | 9.0 | 15.0 | 0.00 | 0.00 | 0.00 | 81 | 1020.5 |
| 20260904010508 | 62 | 246 | 11.0 | 12.0 | 0.00 | 0.00 | 0.00 | 81 | 1020.4 |
| 20260904010008 | 62 | 228 | 10.0 | 14.0 | 0.00 | 0.00 | 0.00 | 81 | 1020.6 |
| 20260904005507 | 62 | 252 | 16.0 | 16.0 | 0.00 | 0.00 | 0.00 | 81 | 1020.8 |
| 20260904005007 | 62 | 237 | 8.0 | 12.0 | 0.00 | 0.00 | 0.00 | 80 | 1020.6 |
| 20260904004508 | 62 | 246 | 9.0 | 10.0 | 0.00 | 0.00 | 0.00 | 80 | 1020.3 |
| 20260904004007 | 62 | 221 | 9.0 | 12.0 | 0.00 | 0.00 | 0.00 | 80 | 1020.5 |
| 20260904003507 | 62 | 241 | 10.0 | 12.0 | 0.00 | 0.00 | 0.00 | 80 | 1020.4 |
| 20260904003008 | 62 | 241 | 11.0 | 15.0 | 0.00 | 0.00 | 0.00 | 80 | 1020.6 |
| 20260904002509 | 62 | 250 | 11.0 | 14.0 | 0.00 | 0.00 | 0.00 | 80 | 1020.6 |
| 20260904002007 | 62 | 253 | 10.0 | 11.0 | 0.00 | 0.00 | 0.00 | 80 | 1020.6 |
| 20260904001507 | 62 | 236 | 11.0 | 13.0 | 0.00 | 0.00 | 0.00 | 80 | 1020.9 |
| 20260904001008 | 62 | 236 | 11.0 | 13.0 | 0.00 | 0.00 | 0.00 | 80 | 1020.6 |
| 20260904000508 | 62 | 261 | 8.0 | 11.0 | 0.00 | 0.00 | 0.00 | 80 | 1020.8 |
| 20260904000007 | 62 | 230 | 14.0 | 14.0 | 0.00 | 0.00 | 0.00 | 80 | 1020.7 |
| 20260903235507 | 30 | 0 | 0.0 | 0.0 | 0.00 | 0.00 | 0.00 | 100 | 1020.7 |
| 20260903235008 | 30 | 0 | 0.0 | 0.0 | 0.00 | 0.00 | 0.00 | 100 | 1020.9 |
| 20260903234507 | 62 | 254 | 12.0 | 12.0 | 0.00 | 0.00 | 0.00 | 81 | 1021.0 |
| 20260903234007 | 62 | 254 | 12.0 | 12.0 | 0.00 | 0.00 | 0.00 | 81 | 1020.9 |
| 20260903233507 | 30 | 0 | 0.0 | 0.0 | 0.00 | 0.00 | 0.00 | 100 | 1021.0 |
| 20260903233008 | 62 | 247 | 14.0 | 14.0 | 0.00 | 0.00 | 0.00 | 80 | 1021.2 |
| 20260903232508 | 62 | 247 | 14.0 | 14.0 | 0.00 | 0.00 | 0.00 | 80 | 1021.1 |
| 20260903232008 | 30 | 0 | 0.0 | 0.0 | 0.00 | 0.00 | 0.00 | 100 | 1021.2 |
| 20260903231507 | 30 | 0 | 0.0 | 0.0 | 0.00 | 0.00 | 0.00 | 100 | 1021.2 |
| 20260903231007 | 62 | 242 | 10.0 | 12.0 | 0.00 | 0.00 | 0.00 | 80 | 1021.2 |
| 20260903230508 | 62 | 242 | 10.0 | 12.0 | 0.00 | 0.00 | 0.00 | 80 | 1021.3 |
| 20260903230007 | 62 | 246 | 13.0 | 14.0 | 0.00 | 0.00 | 0.00 | 80 | 1021.0 |
| 20260903225508 | 62 | 246 | 8.0 | 13.0 | 0.00 | 0.00 | 0.00 | 79 | 1021.3 |
| 20260903225008 | 62 | 250 | 9.0 | 11.0 | 0.00 | 0.00 | 0.00 | 79 | 1021.3 |
| 20260903224508 | 62 | 251 | 12.0 | 14.0 | 0.00 | 0.00 | 0.00 | 79 | 1021.1 |
| 20260903224008 | 30 | 0 | 0.0 | 0.0 | 0.00 | 0.00 | 0.00 | 100 | 1021.3 |
| 20260903223508 | 62 | 229 | 10.0 | 12.0 | 0.00 | 0.00 | 0.00 | 80 | 1021.2 |
| 20260903223007 | 62 | 229 | 10.0 | 12.0 | 0.00 | 0.00 | 0.00 | 80 | 1021.0 |
| 20260903222507 | 62 | 237 | 10.0 | 11.0 | 0.00 | 0.00 | 0.00 | 80 | 1021.4 |
| 20260903222008 | 62 | 246 | 10.0 | 11.0 | 0.00 | 0.00 | 0.00 | 80 | 1021.3 |
| 20260903221508 | 62 | 232 | 10.0 | 11.0 | 0.00 | 0.00 | 0.00 | 81 | 1021.0 |
| 20260903221006 | 62 | 231 | 6.0 | 10.0 | 0.00 | 0.00 | 0.00 | 82 | 1021.0 |
| 20260903220507 | 62 | 231 | 6.0 | 10.0 | 0.00 | 0.00 | 0.00 | 82 | 1021.1 |
| 20260903220008 | 62 | 222 | 9.0 | 9.0 | 0.00 | 0.00 | 0.00 | 82 | 1021.2 |
| 20260903215508 | 62 | 231 | 6.0 | 10.0 | 0.00 | 0.00 | 0.00 | 82 | 1021.2 |
| 20260903215007 | 62 | 231 | 6.0 | 10.0 | 0.00 | 0.00 | 0.00 | 82 | 1021.3 |
| 20260903214508 | 62 | 237 | 11.0 | 13.0 | 0.00 | 0.00 | 0.00 | 82 | 1021.3 |
| 20260903214007 | 62 | 242 | 5.0 | 8.0 | 0.00 | 0.00 | 0.00 | 82 | 1021.2 |
| 20260903213507 | 62 | 229 | 8.0 | 8.0 | 0.00 | 0.00 | 0.00 | 82 | 1021.3 |
| 20260903213007 | 62 | 241 | 9.0 | 10.0 | 0.00 | 0.00 | 0.00 | 82 | 1021.2 |
| 20260903212508 | 62 | 242 | 8.0 | 9.0 | 0.00 | 0.00 | 0.00 | 83 | 1021.4 |
| 20260903212007 | 61 | 230 | 6.0 | 7.0 | 0.00 | 0.00 | 0.00 | 83 | 1021.1 |
| 20260903211508 | 61 | 224 | 8.0 | 10.0 | 0.00 | 0.00 | 0.00 | 83 | 1021.3 |
| 20260903211007 | 61 | 248 | 8.0 | 10.0 | 0.00 | 0.00 | 0.00 | 83 | 1021.5 |
| 20260903210507 | 61 | 251 | 12.0 | 12.0 | 0.00 | 0.00 | 0.00 | 83 | 1021.6 |
| 20260903210008 | 61 | 263 | 8.0 | 9.0 | 0.00 | 0.00 | 0.00 | 83 | 1021.3 |
| 20260903205507 | 61 | 223 | 6.0 | 8.0 | 0.00 | 0.00 | 0.00 | 83 | 1021.4 |
| 20260903205008 | 61 | 223 | 6.0 | 8.0 | 0.00 | 0.00 | 0.00 | 83 | 1021.7 |
| 20260903204507 | 61 | 237 | 11.0 | 12.0 | 0.00 | 0.00 | 0.00 | 83 | 1021.7 |
| 20260903204008 | 61 | 249 | 7.0 | 11.0 | 0.00 | 0.00 | 0.00 | 83 | 1021.4 |
| 20260903203508 | 61 | 243 | 12.0 | 13.0 | 0.00 | 0.00 | 0.00 | 83 | 1021.6 |
| 20260903203009 | 61 | 223 | 7.0 | 9.0 | 0.00 | 0.00 | 0.00 | 83 | 1021.4 |
| 20260903202507 | 61 | 248 | 14.0 | 15.0 | 0.00 | 0.00 | 0.00 | 83 | 1021.5 |
| 20260903202007 | 62 | 234 | 8.0 | 15.0 | 0.00 | 0.00 | 0.00 | 82 | 1021.5 |
| 20260903201507 | 61 | 245 | 9.0 | 12.0 | 0.00 | 0.00 | 0.00 | 82 | 1021.5 |
| 20260903201007 | 61 | 229 | 8.0 | 12.0 | 0.00 | 0.00 | 0.00 | 82 | 1021.5 |
| 20260903200508 | 62 | 241 | 10.0 | 13.0 | 0.00 | 0.00 | 0.00 | 82 | 1021.4 |
| 20260903200007 | 62 | 237 | 8.0 | 14.0 | 0.00 | 0.00 | 0.00 | 82 | 1021.7 |
| 20260903195508 | 62 | 233 | 14.0 | 16.0 | 0.00 | 0.00 | 0.00 | 81 | 1021.5 |
| 20260903195008 | 62 | 221 | 13.0 | 15.0 | 0.00 | 0.00 | 0.00 | 81 | 1021.5 |
| 20260903194507 | 62 | 222 | 9.0 | 11.0 | 0.00 | 0.00 | 0.00 | 81 | 1021.6 |
| 20260903194007 | 62 | 222 | 9.0 | 12.0 | 0.00 | 0.00 | 0.00 | 80 | 1021.4 |
| 20260903193507 | 62 | 238 | 12.0 | 12.0 | 0.00 | 0.00 | 0.00 | 80 | 1021.6 |
| 20260903193008 | 62 | 241 | 11.0 | 14.0 | 0.00 | 0.00 | 0.00 | 80 | 1021.6 |
| 20260903192507 | 62 | 241 | 11.0 | 14.0 | 0.00 | 0.00 | 0.00 | 80 | 1021.6 |
| 20260903192007 | 62 | 249 | 9.0 | 14.0 | 0.00 | 0.00 | 0.00 | 79 | 1021.5 |
| 20260903191507 | 62 | 222 | 11.0 | 15.0 | 0.00 | 0.00 | 0.00 | 79 | 1021.8 |
| 20260903191007 | 62 | 250 | 14.0 | 15.0 | 0.00 | 0.00 | 0.00 | 79 | 1021.9 |
| 20260903190508 | 62 | 238 | 10.0 | 10.0 | 0.00 | 0.00 | 0.00 | 78 | 1021.8 |
| 20260903190007 | 62 | 229 | 10.0 | 11.0 | 0.00 | 0.00 | 0.00 | 78 | 1022.2 |
| 20260903185508 | 62 | 265 | 10.0 | 11.0 | 0.00 | 0.00 | 0.00 | 77 | 1022.0 |
| 20260903185009 | 63 | 237 | 11.0 | 12.0 | 0.00 | 0.00 | 0.00 | 77 | 1022.0 |
| 20260903184507 | 63 | 267 | 13.0 | 15.0 | 0.00 | 0.00 | 0.00 | 75 | 1022.0 |
| 20260903184007 | 63 | 245 | 9.0 | 10.0 | 0.00 | 0.00 | 0.00 | 75 | 1021.8 |
| 20260903183508 | 63 | 264 | 16.0 | 18.0 | 0.00 | 0.00 | 0.00 | 75 | 1022.0 |
| 20260903183008 | 64 | 246 | 10.0 | 11.0 | 0.00 | 0.00 | 0.00 | 73 | 1022.0 |
| 20260903182507 | 64 | 259 | 12.0 | 15.0 | 0.00 | 0.00 | 0.00 | 72 | 1022.3 |
| 20260903182008 | 64 | 259 | 12.0 | 15.0 | 0.00 | 0.00 | 0.00 | 72 | 1021.9 |
| 20260903181508 | 64 | 268 | 12.0 | 12.0 | 0.00 | 0.00 | 0.00 | 71 | 1021.8 |
| 20260903181006 | 64 | 275 | 19.0 | 20.0 | 0.00 | 0.00 | 0.00 | 71 | 1021.9 |
| 20260903180506 | 64 | 251 | 9.0 | 11.0 | 0.00 | 0.00 | 0.00 | 70 | 1021.7 |
| 20260903180007 | 64 | 260 | 12.0 | 19.0 | 0.00 | 0.00 | 0.00 | 70 | 1022.0 |
| 20260903175508 | 65 | 277 | 20.0 | 22.0 | 0.00 | 0.00 | 0.00 | 69 | 1021.7 |
| 20260903175007 | 65 | 269 | 17.0 | 19.0 | 0.00 | 0.00 | 0.00 | 69 | 1021.9 |
| 20260903174507 | 65 | 263 | 12.0 | 17.0 | 0.00 | 0.00 | 0.00 | 68 | 1022.0 |
| 20260903174006 | 65 | 289 | 19.0 | 21.0 | 0.00 | 0.00 | 0.00 | 67 | 1021.6 |
| 20260903173508 | 65 | 289 | 19.0 | 21.0 | 0.00 | 0.00 | 0.00 | 67 | 1021.7 |
| 20260903173008 | 66 | 280 | 16.0 | 16.0 | 0.00 | 0.00 | 0.00 | 67 | 1021.6 |
| 20260903172508 | 66 | 277 | 14.0 | 21.0 | 0.00 | 0.00 | 0.00 | 66 | 1021.5 |
| 20260903172006 | 66 | 274 | 13.0 | 25.0 | 0.00 | 0.00 | 0.00 | 66 | 1021.7 |
| 20260903171508 | 66 | 284 | 17.0 | 21.0 | 0.00 | 0.00 | 0.00 | 65 | 1021.5 |
| 20260903171008 | 66 | 287 | 16.0 | 20.0 | 0.00 | 0.00 | 0.00 | 65 | 1021.7 |
| 20260903170507 | 66 | 293 | 18.0 | 21.0 | 0.00 | 0.00 | 0.00 | 64 | 1021.6 |
| 20260903170007 | 66 | 272 | 12.0 | 20.0 | 0.00 | 0.00 | 0.00 | 64 | 1021.5 |
| 20260903165508 | 67 | 293 | 13.0 | 21.0 | 0.00 | 0.00 | 0.00 | 63 | 1021.6 |
| 20260903165007 | 67 | 289 | 13.0 | 15.0 | 0.00 | 0.00 | 0.00 | 62 | 1021.6 |
| 20260903164507 | 67 | 275 | 14.0 | 16.0 | 0.00 | 0.00 | 0.00 | 61 | 1021.4 |
| 20260903164007 | 67 | 276 | 10.0 | 15.0 | 0.00 | 0.00 | 0.00 | 61 | 1021.4 |
| 20260903163508 | 68 | 282 | 12.0 | 17.0 | 0.00 | 0.00 | 0.00 | 61 | 1021.4 |
| 20260903163008 | 68 | 297 | 12.0 | 20.0 | 0.00 | 0.00 | 0.00 | 59 | 1021.6 |
| 20260903162507 | 68 | 269 | 21.0 | 24.0 | 0.00 | 0.00 | 0.00 | 59 | 1021.6 |
| 20260903162008 | 68 | 266 | 12.0 | 17.0 | 0.00 | 0.00 | 0.00 | 58 | 1021.2 |
| 20260903161508 | 69 | 292 | 19.0 | 25.0 | 0.00 | 0.00 | 0.00 | 57 | 1021.0 |
| 20260903161006 | 69 | 280 | 24.0 | 24.0 | 0.00 | 0.00 | 0.00 | 55 | 1021.3 |
| 20260903160507 | 69 | 285 | 12.0 | 20.0 | 0.00 | 0.00 | 0.00 | 54 | 1021.3 |
| 20260903160008 | 69 | 287 | 14.0 | 18.0 | 0.00 | 0.00 | 0.00 | 53 | 1021.2 |
| 20260903155507 | 70 | 276 | 12.0 | 23.0 | 0.00 | 0.00 | 0.00 | 53 | 1021.4 |
| 20260903155008 | 70 | 277 | 17.0 | 20.0 | 0.00 | 0.00 | 0.00 | 53 | 1021.4 |
| 20260903154508 | 70 | 241 | 12.0 | 21.0 | 0.00 | 0.00 | 0.00 | 53 | 1021.1 |
| 20260903154007 | 70 | 281 | 11.0 | 15.0 | 0.00 | 0.00 | 0.00 | 53 | 1021.4 |
| 20260903153508 | 70 | 272 | 17.0 | 18.0 | 0.00 | 0.00 | 0.00 | 53 | 1021.2 |
| 20260903153008 | 70 | 278 | 12.0 | 18.0 | 0.00 | 0.00 | 0.00 | 53 | 1021.3 |
| 20260903152507 | 70 | 236 | 10.0 | 12.0 | 0.00 | 0.00 | 0.00 | 53 | 1021.1 |
| 20260903152008 | 70 | 241 | 8.0 | 9.0 | 0.00 | 0.00 | 0.00 | 53 | 1021.3 |
| 20260903151507 | 70 | 223 | 3.0 | 9.0 | 0.00 | 0.00 | 0.00 | 52 | 1021.2 |
| 20260903151006 | 70 | 264 | 7.0 | 9.0 | 0.00 | 0.00 | 0.00 | 52 | 1021.3 |
| 20260903150508 | 70 | 274 | 10.0 | 12.0 | 0.00 | 0.00 | 0.00 | 51 | 1021.4 |
| 20260903150007 | 70 | 260 | 9.0 | 12.0 | 0.00 | 0.00 | 0.00 | 51 | 1021.5 |
| 20260903145507 | 70 | 257 | 9.0 | 9.0 | 0.00 | 0.00 | 0.00 | 51 | 1021.3 |
| 20260903145007 | 70 | 264 | 10.0 | 11.0 | 0.00 | 0.00 | 0.00 | 52 | 1021.3 |
| 20260903144507 | 70 | 260 | 7.0 | 11.0 | 0.00 | 0.00 | 0.00 | 51 | 1021.2 |
| 20260903144007 | 70 | 266 | 12.0 | 15.0 | 0.00 | 0.00 | 0.00 | 50 | 1021.4 |
| 20260903143507 | 70 | 287 | 11.0 | 12.0 | 0.00 | 0.00 | 0.00 | 50 | 1021.2 |
| 20260903143007 | 70 | 280 | 13.0 | 14.0 | 0.00 | 0.00 | 0.00 | 50 | 1021.4 |
| 20260903142507 | 70 | 261 | 6.0 | 9.0 | 0.00 | 0.00 | 0.00 | 50 | 1021.3 |
| 20260903142008 | 70 | 287 | 12.0 | 13.0 | 0.00 | 0.00 | 0.00 | 50 | 1021.5 |
| 20260903141507 | 70 | 271 | 11.0 | 11.0 | 0.00 | 0.00 | 0.00 | 49 | 1021.5 |
| 20260903141007 | 70 | 260 | 8.0 | 10.0 | 0.00 | 0.00 | 0.00 | 49 | 1021.4 |
| 20260903140507 | 71 | 253 | 7.0 | 9.0 | 0.00 | 0.00 | 0.00 | 50 | 1021.6 |
| 20260903140008 | 70 | 266 | 10.0 | 12.0 | 0.00 | 0.00 | 0.00 | 49 | 1021.6 |
| 20260903135508 | 70 | 265 | 14.0 | 16.0 | 0.00 | 0.00 | 0.00 | 49 | 1021.8 |
| 20260903135007 | 70 | 273 | 10.0 | 14.0 | 0.00 | 0.00 | 0.00 | 50 | 1021.9 |
| 20260903134507 | 70 | 284 | 8.0 | 9.0 | 0.00 | 0.00 | 0.00 | 50 | 1021.6 |
| 20260903134008 | 70 | 295 | 7.0 | 11.0 | 0.00 | 0.00 | 0.00 | 49 | 1021.7 |
| 20260903133507 | 70 | 287 | 9.0 | 12.0 | 0.00 | 0.00 | 0.00 | 49 | 1022.0 |
| 20260903133009 | 70 | 278 | 8.0 | 12.0 | 0.00 | 0.00 | 0.00 | 49 | 1021.9 |
| 20260903132508 | 70 | 277 | 9.0 | 12.0 | 0.00 | 0.00 | 0.00 | 49 | 1021.9 |
| 20260903132008 | 70 | 272 | 10.0 | 12.0 | 0.00 | 0.00 | 0.00 | 49 | 1021.7 |
| 20260903131508 | 70 | 259 | 8.0 | 13.0 | 0.00 | 0.00 | 0.00 | 49 | 1021.6 |
| 20260903131006 | 70 | 276 | 11.0 | 11.0 | 0.00 | 0.00 | 0.00 | 49 | 1021.7 |
| 20260903130508 | 70 | 266 | 16.0 | 20.0 | 0.00 | 0.00 | 0.00 | 48 | 1021.8 |
| 20260903130007 | 70 | 275 | 9.0 | 11.0 | 0.00 | 0.00 | 0.00 | 49 | 1021.9 |
| 20260903125507 | 70 | 286 | 15.0 | 17.0 | 0.00 | 0.00 | 0.00 | 49 | 1021.9 |
| 20260903125007 | 70 | 258 | 10.0 | 11.0 | 0.00 | 0.00 | 0.00 | 50 | 1021.5 |
| 20260903124508 | 70 | 284 | 8.0 | 10.0 | 0.00 | 0.00 | 0.00 | 50 | 1021.7 |
| 20260903124008 | 70 | 278 | 12.0 | 13.0 | 0.00 | 0.00 | 0.00 | 49 | 1021.7 |
| 20260903123507 | 71 | 279 | 7.0 | 8.0 | 0.00 | 0.00 | 0.00 | 50 | 1021.8 |
| 20260903123007 | 70 | 275 | 12.0 | 13.0 | 0.00 | 0.00 | 0.00 | 48 | 1021.5 |
| 20260903122508 | 70 | 282 | 8.0 | 12.0 | 0.00 | 0.00 | 0.00 | 49 | 1021.9 |
| 20260903122006 | 69 | 284 | 16.0 | 17.0 | 0.00 | 0.00 | 0.00 | 49 | 1021.7 |
| 20260903121507 | 69 | 276 | 15.0 | 17.0 | 0.00 | 0.00 | 0.00 | 50 | 1021.8 |
| 20260903121006 | 69 | 290 | 13.0 | 17.0 | 0.00 | 0.00 | 0.00 | 50 | 1021.7 |
| 20260903120508 | 69 | 293 | 6.0 | 8.0 | 0.00 | 0.00 | 0.00 | 52 | 1021.7 |
| 20260903115507 | 69 | 286 | 11.0 | 13.0 | 0.00 | 0.00 | 0.00 | 51 | 1021.8 |
| 20260903115008 | 69 | 275 | 12.0 | 16.0 | 0.00 | 0.00 | 0.00 | 50 | 1021.8 |
| 20260903114508 | 69 | 265 | 17.0 | 18.0 | 0.00 | 0.00 | 0.00 | 50 | 1022.0 |
| 20260903114007 | 69 | 266 | 14.0 | 16.0 | 0.00 | 0.00 | 0.00 | 51 | 1022.1 |
| 20260903113507 | 69 | 271 | 21.0 | 25.0 | 0.00 | 0.00 | 0.00 | 49 | 1021.9 |
| 20260903112507 | 69 | 283 | 19.0 | 21.0 | 0.00 | 0.00 | 0.00 | 51 | 1022.1 |
| 20260903112007 | 69 | 245 | 16.0 | 18.0 | 0.00 | 0.00 | 0.00 | 50 | 1022.2 |
| 20260903111508 | 69 | 266 | 9.0 | 12.0 | 0.00 | 0.00 | 0.00 | 52 | 1022.3 |
| 20260903111007 | 69 | 249 | 4.0 | 6.0 | 0.00 | 0.00 | 0.00 | 53 | 1022.4 |
| 20260903110507 | 69 | 256 | 14.0 | 19.0 | 0.00 | 0.00 | 0.00 | 50 | 1022.6 |